DELTA 1 DEB, 10714

Orbit data source: Space-Track

DELTA 1 DEB, 10714 is space debris in LEO originally from a launch on Thu, 29 Jul 1976 UTC launched from the Air Force Western Test Range (AFWTR). Debris objects in space refer to the collection of defunct objects orbiting the Earth. Examples of debris include non-operational satellites, rocket bodies, and fragments generated from explosions, collisions, or faulty payload assembly.

Loading next visibility...
DELTA 1 DEB details
Identifier
10714, 1976-077AK
Orbit
LEO
Last TLE update7 hours ago
Origin
Flag of USGSFC (US)
ManufacturerUnknown
MissionSpacecraft
Bus & MotorUnknown
MassUnknown
Launch date (UTC)
1976-07-29 (48 years ago)
Launch vehicleUnknown
Launch site
Air Force Western Test Range (AFWTR)
Object type
Payload
Rocket body
Debris
Shape & HBRUnknown
Radar Cross SectionMedium (>0.1 m² and <1 m²)

Expand to show TLE details & history

TLE from 7 hours ago
0 DELTA 1 DEB
1 10714U 76077AK  24361.30464052  .00002461  00000-0  34972-1 0  9999
2 10714 103.3580 284.4944 0598892  50.6108  97.9643 11.53576427 30980
Epoch: 2024-12-26T07:18Z
Definitive object data (Epoch: 2024-12-26T07:18:40.94Z)
Latitude24.02541°
Longitude-94.41416°
Altitude1,995.44 km
Speed6.862 km/s
True Right ascension07h 22m 10s
True Declination23° 54' 60"
Sunlit
Object was in full shadow at TLE epoch
Visualization TLE readout
Latitude-39.37162°
Longitude91.00303°
Altitude1,885.942 km
Speed6.956 km/s
Apparent Right ascension22h 18m 24s
Apparent Declination-49° 52' 19"
Sunlit
Object is in daylight
Visualization observer readout
Local Sidereal Time13:56:51
Azimuth123.437° SE
Elevation-50.977°
Doppler factor1
Orbital elements
Apogee altitude2,388.783 km
Perigee altitude1,398.031 km
Semi-major axis8,271.544 km
Eccentricity0.0598892
Inclination103.358°
RAAN284.4944°
Arg. of periapsis50.6108°
True anomaly104.67574°
Mean anomaly97.9643°
Eccentric anomaly101.32884°
Mean motion2.88512 °/min
BSTAR0.034972
Orbital period124.78 mins
Loading maneuver chart data...
Loading historical data...
Loading historical data...
Loading historical data...
Loading historical data...
Loading historical data...
Loading historical data...
Loading historical data...

DELTA 1 DEB Visibility forecast

Observer location: undefined°, undefined

Span
Click to sort rows by Start time (UTC) header in descending order
Start Az.
Max El. time (UTC)
Max El. Az.
Max El.
End time (UTC)
End Az.
11 mins2024-12-26 17:03:59.198Z96.795° ESE2024-12-26 17:08:59.198Z53.338° ENE22.01°2024-12-26 17:14:59.198Z3.045° NNE
14 mins2024-12-26 19:03:59.198Z170.113° S2024-12-26 19:10:59.198Z268.99° W43.242°2024-12-26 19:17:59.198Z335.8° NNW
11 mins2024-12-27 06:03:59.198Z63.01° ENE2024-12-27 06:08:59.198Z95.714° ESE16.411°2024-12-27 06:14:59.198Z130.231° SE
18 mins2024-12-27 08:03:59.198Z22.674° NE2024-12-27 08:11:59.198Z136.442° SSE44.553°2024-12-27 08:21:59.198Z197.126° SSW
14 mins2024-12-27 10:06:59.198Z353.537° N2024-12-27 10:12:59.198Z306.454° NW24.583°2024-12-27 10:20:59.198Z255.747° W
|